Volver al catálogo

STARLINK-32758

ActivoComunicacionesVLEO
NORAD 62744·PAYLOAD·🇺🇸 United States

Lanzado Jan 21, 2025 desde Cape Canaveral Space Force Station

Loading…

Próximos Pases (próximas 24 horas)

TLE

ActualizadoSource: CelesTrak SupGP

Época: Sep 14, 2026, 15:25 UTC

1 62744C 25014K   26257.64284722  .00042265  00000+0  15312-2 0  2571
2 62744  43.0020 170.6846 0001579 261.2637 184.9920 15.27549211    16

Sigue STARLINK-32758 en tiempo real con AllMySat

Download on the App Store